Regional Weather Roundup
Issued by NWS

Home | Current Version | Previous Version | Graphics & Text | Print | Product List | Glossary On
Versions: 1 2 3 4 5 6 7 8 9 10 11 12 13 14 15 16 17 18 19 20 21 22 23 24 25 26 27 28 29 30 31 32 33 34 35 36 37 38 39 40 41 42 43 44 45 46 47 48 49 50
000
ASUS43 KMPX 030210
RWRMN
WEATHER ROUNDUP FOR MINNESOTA
NATIONAL WEATHER SERVICE TWIN CITIES/CHANHASSEN MN
800 PM CST MON MAR 02 2015


NOTE: "FAIR" INDICATES FEW OR NO CLOUDS BELOW 12,000 FEET WITH NO
SIGNIFICANT WEATHER AND/OR OBSTRUCTIONS TO VISIBILITY. N/A MEANS
CURRENT SKY AND/OR WEATHER CONDITIONS ARE NOT AVAILABLE.

MNZ060>063-068>070-030300-
   Twin Cities Metro

CITY           SKY/WX    TMP DP  RH WIND       PRES   REMARKS
TWIN CITIES    CLOUDY    21  10  62 S8        30.17F WCI  11
ST PAUL        CLOUDY    22  10  60 SE17      30.19F WCI   8
CRYSTAL        CLOUDY    23  11  60 S15       30.15F WCI  10
LAKEVILLE      CLOUDY    19  12  73 S9        30.16F WCI   9
EDEN PRAIRIE   CLOUDY    22  10  60 SE10      30.15F WCI  11
SOUTH ST PAUL  CLOUDY    22  10  60 S12       30.18F WCI  11
LAKE ELMO      CLOUDY    23  10  58 S12       30.17F WCI  12
$$
MNZ001>005-007-008-013>017-022>024-027-028-030300-
   Northwest Minnesota

CITY           SKY/WX    TMP DP  RH WIND       PRES   REMARKS
BEMIDJI        CLOUDY    24  11  58 S20       29.92F WCI   9
HALLOCK        PTCLDY    23  16  74 S21       29.84F WCI   8
ROSEAU         CLOUDY    27  14  59 S16       29.85F WCI  14
WARROAD        CLOUDY    25  12  58 S17       29.85F WCI  11
THIEF RVR FALL CLOUDY    25  16  68 S20       29.87F WCI  11
CROOKSTON      CLEAR     25  18  74 S28       29.88F WCI   8
FOSSTON        CLOUDY    23  12  63 S24G31    29.89F WCI   7
DETROIT LAKES  MOCLDY    27  18  69 S16G26    29.94F WCI  14
MOORHEAD       CLOUDY    28  19  69 S23G33    29.91F WCI  14
PARK RAPIDS    CLOUDY    24  12  60 S21G28    29.96F WCI   9
MAHNOMEN       CLOUDY    25  15  67 S16G24    29.90F WCI  12
$$
MNZ006-009>011-018-025>026-030300-
   North Central Minnesota

CITY           SKY/WX    TMP DP  RH WIND       PRES   REMARKS
BAUDETTE       CLOUDY    23   7  50 S13       29.88F WCI  11
FLAG ISLAND    CLOUDY    18   9  68 S14       29.86F WCI   4
INTL FALLS     CLEAR     21   3  45 SE8       29.94F WCI  11
WASKISH        MOCLDY    25   9  50 S8G17     29.92F WCI  16
BIG FORK       CLOUDY    25   7  46 S12       29.97F WCI  14
LONGVILLE      CLOUDY    23  10  58 S15       30.02F WCI  10
GRAND RAPIDS   CLOUDY    21   7  53 S17       30.02F WCI   7
CRANE LAKE     CLEAR     19   1  45 SE3       30.03F
ORR            PTCLDY    19   0  42 S9        29.97F WCI   9
COOK           PTCLDY    19   3  49 SE6       30.01F WCI  11
WALKER         CLOUDY    23   9  55 S12G21    29.97F WCI  12
$$
MNZ012-019>021-037-030300-
   Northeast Minnesota

CITY           SKY/WX    TMP DP  RH WIND       PRES   REMARKS
DULUTH         PTCLDY    20   4  50 S13       30.08F WCI   7
ELY            CLEAR     19   1  45 S10       30.04F WCI   8
HIBBING        CLOUDY    21   4  47 S8G17     30.04F WCI  11
EVELETH        PTCLDY    21   5  49 S9        30.05F WCI  11
DULUTH HARBOR  FAIR      21   7  53 CALM      30.16F
TWO HARBORS    PTCLDY    23   9  54 SW7       30.09F WCI  15
SILVER BAY     PTCLDY    19   7  58 S5        30.08F WCI  13
GRAND MARAIS     N/A     27  15  61 SW16      30.14F WCI  15
G MARAIS ARPRT CLEAR     16   9  73 S6        30.06F WCI   7
$$
MNZ029>031-032-039>041-046>048-054>057-064-030300-
   West Central Minnesota

CITY           SKY/WX    TMP DP  RH WIND       PRES   REMARKS
FERGUS FALLS   CLOUDY    25  16  68 S21       30.00F WCI  10
WHEATON        CLOUDY    25  18  74 SE20G26   29.98F WCI  11
MORRIS         CLOUDY    25  18  74 S23       29.99F WCI  10
ALEXANDRIA     CLOUDY    23  14  68 SE20      30.01F WCI   8
ELBOW LAKE     CLOUDY    24  17  77 S25G31    29.97F WCI   7
WADENA         CLOUDY    21  12  68 S14G23    29.99F WCI   8
GLENWOOD       CLOUDY    23  16  74 SE16      30.03F WCI  10
APPLETON       CLOUDY    27  19  74 S14G21    30.01F WCI  15
BENSON         CLOUDY    25  18  74 S14G25    30.02F WCI  13
ORTONVILLE     CLOUDY    27  18  69 SE15G21   29.98F WCI  15
MADISON        CLOUDY    28  19  69 S16       30.00F WCI  17
WILLMAR        CLOUDY    25  18  74 SE14G20   30.08F WCI  13
$$
MNZ033>034-036-042>043-049>051-058-059-030300-
   Central Minnesota

CITY           SKY/WX    TMP DP  RH WIND       PRES   REMARKS
ST CLOUD       CLOUDY    23  10  57 S12       30.10F WCI  12
SAUK CENTRE    CLOUDY    23  14  68 SE14      30.06F WCI  10
PAYNESVILLE    CLOUDY    21  13  71 E12G17    30.08F WCI   9
AITKIN         CLOUDY    25   9  50 S8G20     30.05F WCI  16
PINE RIVER     CLOUDY    23  12  63 S13       30.06F WCI  11
BRAINERD       CLOUDY    22  11  62 S15G24    30.07S WCI   9
STAPLES        CLOUDY    21  12  68 S18       30.02F WCI   6
LITTLE FALLS   CLOUDY    23  10  58 S12       30.08F WCI  12
LITCHFIELD     CLOUDY    25  16  68 SE10G17   30.10F WCI  15
BUFFALO        CLOUDY    23  11  61 SE7       30.14F WCI  14
MAPLE LAKE     CLOUDY    24  15  68 SE12G17   30.13F WCI  13
$$
MNZ037-044-045-052-053-030300-
   East Central Minnesota

CITY           SKY/WX    TMP DP  RH WIND       PRES   REMARKS
PRINCETON      CLOUDY    25  10  54 SE12      30.12F WCI  14
MORA           CLOUDY    21   9  58 S9        30.14F WCI  11
CAMBRIDGE      CLOUDY    25  10  54 S9        30.12F WCI  15
RUSH CITY      CLOUDY    22   7  53 S10G17    30.15F WCI  11
MOOSE LAKE     CLOUDY    23   5  46 S5G16     30.09F WCI  17
HINCKLEY       CLOUDY    23  10  58 S10       30.13F WCI  12
CLOQUET        CLOUDY    21   3  45 S8        30.09F WCI  12
MCGREGOR       CLOUDY    23   9  54 S10       30.07F WCI  12
$$
MNZ071>073-080-081-089-090-097-098-030300-
   Southwest Minnesota

CITY           SKY/WX    TMP DP  RH WIND       PRES   REMARKS
MONTEVIDEO     CLOUDY    25  19  80 S14G21    30.04F WCI  13
GRANITE FALLS  CLOUDY    25  19  79 SE16G22   30.06F WCI  12
CANBY          CLOUDY    28  21  75 SE15      30.00F WCI  16
MARSHALL       CLOUDY    27  18  69 S17       30.04F WCI  14
REDWOOD FALLS  CLOUDY    25  19  78 S17       30.07F WCI  12
OLIVIA         CLOUDY    23  19  86 SE13      30.08F WCI  11
PIPESTONE      CLOUDY    27  21  80 S16G22    29.97F WCI  14
WINDOM         CLOUDY    25  19  80 SE14      30.07F WCI  13
WORTHINGTON    CLOUDY    25  18  74 SE17      30.05F WCI  11
JACKSON        CLOUDY    27  19  74 SE13      30.08F WCI  16
TRACY          CLOUDY    26  21  79 S12G21    30.03F WCI  16
SLAYTON        CLOUDY    25  19  78 SE17      30.02F WCI  11
$$
MNZ065>067-074>077-082>085-091>093-030300-
   South Central Minnesota

CITY           SKY/WX    TMP DP  RH WIND       PRES   REMARKS
MANKATO        CLOUDY    21  12  68 SE18      30.13F WCI   6
NEW ULM        CLOUDY    23  16  74 SE13G18   30.11S WCI  11
ST JAMES       CLOUDY    25  19  80 SE14G20   30.12F WCI  13
FAIRMONT       CLOUDY    23  16  74 SE18      30.10F WCI   9
GLENCOE        CLOUDY    24  17  76 SE10      30.13S WCI  13
FARIBAULT      CLOUDY    21  12  68 SE12      30.16F WCI   9
OWATONNA       CLOUDY    19  12  73 SE14      30.15F WCI   6
WASECA         CLOUDY    19  14  79 SE13G18   30.17F WCI   7
ALBERT LEA     CLOUDY    21  16  79 SE10      30.15F WCI  10
$$
MNZ078>079-086>088-094>096-030300-
   Southeast Minnesota

CITY           SKY/WX    TMP DP  RH WIND       PRES   REMARKS
ROCHESTER      CLOUDY    19  11  70 S12       30.18F WCI   7
RED WING       CLOUDY    23   9  54 SE8       30.19F WCI  14
STANTON        CLOUDY    22  13  67 S9        30.16F WCI  11
DODGE CENTER   CLOUDY    19  16  86 S12       30.16F WCI   7
WINONA         CLOUDY    27  12  54 CALM      30.25F
AUSTIN         CLOUDY    19  12  73 S7        30.17F WCI  10
PRESTON        CLOUDY    19  10  67 S8        30.20F WCI   9
$$
ABBREVIATIONS USED IN REMARKS
   TC - TEMPERATURES IN CELSIUS
  WCI - WIND CHILL INDEX
   HX - HEAT INDEX
  VSB - VISIBILITY
$$



USA.gov is the U.S. government's official web portal to all federal, state and local government web resources and services.